TimeCST,TemperatureF,Dew PointF,Humidity,Sea Level PressureIn,VisibilityMPH,Wind Direction,Wind SpeedMPH,Gust SpeedMPH,PrecipitationIn,Events,Conditions,WindDirDegrees,DateUTC
12:53 AM,19.9,8.1,60,30.07,10.0,NW,16.1,24.2,N/A,,Overcast,310,2012-12-10 06:53:00
1:42 AM,19.4,8.6,63,30.04,10.0,NW,10.4,20.7,N/A,,Overcast,320,2012-12-10 07:42:00
1:53 AM,19.9,9.0,62,30.06,10.0,NW,15.0,23.0,N/A,,Overcast,310,2012-12-10 07:53:00
2:53 AM,19.0,9.0,65,30.06,10.0,NW,17.3,23.0,N/A,,Overcast,310,2012-12-10 08:53:00
3:53 AM,18.0,9.0,68,30.07,10.0,NW,11.5,21.9,N/A,,Overcast,320,2012-12-10 09:53:00
4:53 AM,19.0,7.0,59,30.08,10.0,NW,12.7,21.9,N/A,,Overcast,310,2012-12-10 10:53:00
5:53 AM,19.0,8.1,62,30.08,10.0,NW,11.5,-,N/A,,Overcast,320,2012-12-10 11:53:00
6:17 AM,19.4,8.6,63,30.05,10.0,NW,12.7,-,N/A,,Overcast,310,2012-12-10 12:17:00
6:53 AM,18.0,6.1,60,30.11,10.0,NW,11.5,-,N/A,,Overcast,310,2012-12-10 12:53:00
7:53 AM,18.0,6.1,60,30.12,10.0,NW,11.5,-,N/A,,Overcast,310,2012-12-10 13:53:00
8:53 AM,18.0,7.0,62,30.13,10.0,WNW,10.4,-,N/A,,Overcast,290,2012-12-10 14:53:00
9:53 AM,19.0,7.0,59,30.13,10.0,WNW,10.4,-,N/A,,Overcast,300,2012-12-10 15:53:00
10:53 AM,19.9,7.0,57,30.13,10.0,West,8.1,-,N/A,,Overcast,280,2012-12-10 16:53:00
11:53 AM,21.9,9.0,58,30.11,10.0,West,9.2,-,N/A,,Overcast,270,2012-12-10 17:53:00
12:53 PM,24.1,10.9,57,30.08,10.0,WNW,5.8,-,N/A,,Mostly Cloudy,300,2012-12-10 18:53:00
1:18 PM,26.6,12.2,55,30.03,10.0,West,6.9,-,N/A,,Scattered Clouds,280,2012-12-10 19:18:00
1:53 PM,28.0,12.9,53,30.06,10.0,NW,5.8,-,N/A,,Partly Cloudy,310,2012-12-10 19:53:00
2:53 PM,28.9,12.0,49,30.04,10.0,WSW,5.8,-,N/A,,Clear,250,2012-12-10 20:53:00
3:53 PM,28.9,6.1,38,30.04,10.0,West,9.2,-,N/A,,Clear,280,2012-12-10 21:53:00
4:53 PM,26.1,3.9,39,30.03,10.0,SW,4.6,-,N/A,,Clear,230,2012-12-10 22:53:00
5:53 PM,21.0,5.0,50,30.04,10.0,SSW,8.1,-,N/A,,Clear,200,2012-12-10 23:53:00
6:53 PM,19.9,6.1,55,30.04,10.0,South,5.8,-,N/A,,Clear,190,2012-12-11 00:53:00
7:53 PM,17.1,6.1,62,30.04,10.0,South,6.9,-,N/A,,Clear,180,2012-12-11 01:53:00
8:53 PM,16.0,6.1,65,30.05,10.0,South,9.2,-,N/A,,Clear,190,2012-12-11 02:53:00
9:53 PM,16.0,6.1,65,30.04,10.0,South,9.2,-,N/A,,Clear,190,2012-12-11 03:53:00
10:53 PM,16.0,6.1,65,30.04,10.0,South,10.4,-,N/A,,Clear,170,2012-12-11 04:53:00
11:53 PM,17.1,6.1,62,30.03,10.0,South,8.1,-,N/A,,Clear,190,2012-12-11 05:53:00